Weather in Bannoye

Russia / Republic of Bashkortostan     53°34′12″N   58°37′20″E
temp.,
°C
wind,
m/s
gust,
m/s
humid.,
%
clouds,
%
prec.,
mm/h
press.,
hPa
HPBL,
m
2 march, tue
tue223:00−15w119796 0.3 101820
02:00−17wnw229775 0.0 101820
05:00−18wnw229768 0.0 101820
08:00−20wnw32970 0.0 101721
11:00−14w34890 0.0 1015223
14:00−9w3108350 0.0 1012539
17:00−9wsw4128875 0.0 1010597
20:00−13wsw41691100 0.0 1009590
3 march, wed
wed323:00−15w4129199 0.1 1008328
02:00−11wsw41589100 0.0 1005537
05:00−9wsw41491100 0.1 1004616
08:00−9sw4139293 0.1 1003421
11:00−5wsw5118997 0.1 1003736
14:00−2wsw5885100 0.1 1002971
17:00−2wsw4885100 0.3 1002859
20:00−7w349266 0.1 100386
4 march, thu
thu423:00−11w349551 0.1 100450
02:00−12w369360 0.0 100391
05:00−13w369349 0.0 1004128
08:00−14w349355 0.0 100589
11:00−9wnw7138443 0.0 1006672
14:00−8wnw711806 0.0 10071122
17:00−8w7138348 0.1 1009931
20:00−11w5158979 0.0 1010455
5 march, fri
fri523:00−12wsw4169084 0.1 1011542
02:00−11sw5179099 0.1 1008679
05:00−6wsw9198696 0.3 1006897
08:00−4wsw10218460 0.1 1005964
11:00−4wsw11218543 0.1 10061131
14:00−2wsw11198587 0.1 10061209
17:00−3wsw10178788 0.3 10081058
20:00−4wsw7168978 0.1 1009751
6 march, sat
sat623:00−4wsw7168764 0.2 1010637
02:00−4wsw6158859 0.1 1010671
05:00−3wsw5139080 0.1 1011593
08:00−3sw41194100 0.1 1011722
11:00−2ssw61092100 0.3 1009809
14:00−1sw81497100 1.1 1006988
17:00−1sw101986100 1.5 10041138
20:00−1sw91985100 0.1 10021027